Location: Newark
(7.0858°N, 171.3717°E)
Time: 14:45:05
(UTC+00:00)

Courier 1B Rocket - Pass Details

Date: 06 December 2020
Orbit: 920 x 1202 km, 28.2° (Epoch: 20 January)

Event Time Altitude Azimuth Distance (km) Brightness Sun altitude
Rises 14:41:37 0° 281° (W) 3,840 - -53.8°
Reaches altitude 10° 14:45:02 10° 296° (WNW) 2,936 - -53.1°
Maximum altitude 14:50:22 21° 344° (NNW) 2,271 - -51.9°
Drops below altitude 10° 14:55:54 10° 31° (NNE) 3,070 - -50.7°
Exits shadow 14:59:28 - 46° (NE) 4,022 8.4 -49.9°
Sets 14:59:36 0° 46° (NE) 4,062 8.4 -49.9°
